Location: Cahas Mountain Overlook
(37.0833°N, 80.1000°W)
Time: 06:07:26
(UTC-05:00)

Vanguard 2 Rocket - Pass Details

Date: 10 February 2026
Orbit: 553 x 3287 km, 32.9° (Epoch: 5 March)

Event Time Altitude Azimuth Distance (km) Brightness Sun altitude
Rises 19:18:54 0° 275° (W) 4,649 12.2 -17.2°
Reaches altitude 10° 19:22:49 10° 269° (W) 3,218 11.0 -18.0°
Maximum altitude 19:29:38 42° 202° (SSW) 1,198 7.6 -19.3°
Enters shadow 19:32:26 22° 143° (SE) 1,558 7.8 -19.9°
